Jacksonville, NC

12:58 PM EDT on April 30, 2017 (GMT -0400)
Ellis

Weather History for KOAJ - July, 2013

Change the Weather History Date:

Tuesday, July 30, 2013

  Actual Average Record
Temperature  
Mean Temperature 76 °F -  
Max Temperature 84 °F 86 °F 102 °F (2011)
Min Temperature 68 °F 67 °F 62 °F (2014)
Cooling Degree Days 11    
Growing Degree Days 26 (Base 50)    
Moisture  
Dew Point 71 °F    
Average Humidity 87    
Maximum Humidity 100    
Minimum Humidity 66    
Precipitation  
Precipitation 0.00 in - - ()
Sea Level Pressure  
Sea Level Pressure 30.16 in    
Wind  
Wind Speed 2 mph (ENE)    
Max Wind Speed 13 mph    
Max Gust Speed -    
Visibility 7 miles    
Events      
Averages and records for this station are not official NWS values.
T = Trace of Precipitation, MM = Missing Value Source: NWS Daily Summary

Daily Weather History Graph

Daily Weather History Graph

Search for Another Location

Airport or City:

Trip Planner

Search our weather history database for the weather conditions in past years. The results will help you decide how hot, cold, wet, or windy it might be!

Date:

Astronomy

Jul. 30, 2013 Rise Set
Actual Time 6:18 AM EDT 8:14 PM EDT
Civil Twilight 5:51 AM EDT 8:42 PM EDT
Nautical Twilight 5:17 AM EDT 9:15 PM EDT
Astronomical Twilight 4:41 AM EDT 9:51 PM EDT
Moon 12:33 AM EDT 2:33 PM EDT
Length of Visible Light 14h 51m
Length of Day
13h 55m
Last Quarter, 41% of the Moon is Illuminated
Jul 30
Last Quarter
Aug 6
New
Aug 14
First Quarter
Aug 20
Full
Aug 28
Last Quarter

Hourly Weather History & Observations

Time (EDT) Temp. Heat Index Dew Point Humidity Pressure Visibility Wind Dir Wind Speed Gust Speed Precip Events Conditions
12:15 AM 71.6 °F - 69.8 °F 94% 30.16 in 5.0 mi Calm Calm - N/A   Clear
12:35 AM 71.6 °F - 69.8 °F 94% 30.16 in 5.0 mi Calm Calm - N/A   Clear
12:55 AM 69.8 °F - 69.8 °F 100% 30.16 in 3.0 mi Calm Calm - N/A   Clear
1:15 AM 69.8 °F - 69.8 °F 100% 30.16 in 0.5 mi Calm Calm - N/A   Unknown
1:35 AM 69.8 °F - 69.8 °F 100% 30.16 in 3.0 mi Calm Calm - N/A   Clear
1:55 AM 68.0 °F - 68.0 °F 100% 30.16 in 1.8 mi Calm Calm - N/A   Clear
2:15 AM 69.8 °F - 69.8 °F 100% 30.16 in 1.5 mi Calm Calm - N/A   Clear
2:35 AM 69.8 °F - 68.0 °F 94% 30.16 in 0.2 mi Calm Calm - N/A   Overcast
2:55 AM 69.8 °F - 69.8 °F 100% 30.16 in 0.2 mi SSW 3.5 mph - N/A   Overcast
3:15 AM 69.8 °F - 69.8 °F 100% 30.16 in 2.0 mi Calm Calm - N/A   Overcast
3:35 AM 69.8 °F - 69.8 °F 100% 30.16 in 0.2 mi Calm Calm - N/A   Overcast
3:55 AM 69.8 °F - 69.8 °F 100% 30.15 in 0.2 mi Calm Calm - N/A   Overcast
4:15 AM 69.8 °F - 69.8 °F 100% 30.15 in 0.5 mi Calm Calm - N/A   Mostly Cloudy
4:35 AM 69.8 °F - 68.0 °F 94% 30.14 in 1.2 mi Calm Calm - N/A   Mostly Cloudy
4:55 AM 69.8 °F - 68.0 °F 94% 30.15 in 2.5 mi Calm Calm - N/A   Partly Cloudy
5:15 AM 68.0 °F - 66.2 °F 94% 30.15 in 4.0 mi Calm Calm - N/A   Clear
5:35 AM 68.0 °F - 68.0 °F 100% 30.15 in 0.8 mi Calm Calm - N/A   Scattered Clouds
5:55 AM 68.0 °F - 66.2 °F 94% 30.15 in 1.0 mi Calm Calm - N/A   Clear
6:15 AM 68.0 °F - 66.2 °F 94% 30.16 in 0.8 mi Calm Calm - N/A   Unknown
6:35 AM 68.0 °F - 68.0 °F 100% 30.16 in 0.5 mi Calm Calm - N/A   Unknown
6:55 AM 69.8 °F - 68.0 °F 94% 30.17 in 3.0 mi Calm Calm - N/A   Clear
7:15 AM 69.8 °F - 69.8 °F 100% 30.18 in 2.5 mi Calm Calm - N/A   Partly Cloudy
7:35 AM 69.8 °F - 69.8 °F 100% 30.19 in 3.0 mi Calm Calm - N/A   Mostly Cloudy
7:55 AM 69.8 °F - 68.0 °F 94% 30.19 in 3.0 mi Calm Calm - N/A   Overcast
8:15 AM 71.6 °F - 71.6 °F 100% 30.20 in 4.0 mi Calm Calm - N/A   Overcast
8:35 AM 71.6 °F - 71.6 °F 100% 30.20 in 5.0 mi Calm Calm - N/A   Overcast
8:55 AM 73.4 °F - 71.6 °F 94% 30.20 in 6.0 mi North 3.5 mph - N/A   Mostly Cloudy
9:15 AM 75.2 °F - 71.6 °F 89% 30.20 in 7.0 mi North 6.9 mph - N/A   Scattered Clouds
9:35 AM 75.2 °F - 71.6 °F 89% 30.20 in 9.0 mi North 6.9 mph - N/A   Partly Cloudy
9:55 AM 77.0 °F - 71.6 °F 83% 30.20 in 10.0 mi NNE 5.8 mph - N/A   Scattered Clouds
10:15 AM 78.8 °F - 71.6 °F 78% 30.21 in 10.0 mi NNE 6.9 mph - N/A   Mostly Cloudy
10:35 AM 78.8 °F - 71.6 °F 78% 30.21 in 10.0 mi NNE 5.8 mph - N/A   Mostly Cloudy
10:55 AM 80.6 °F 85.4 °F 73.4 °F 79% 30.20 in 9.0 mi East 3.5 mph - N/A   Mostly Cloudy
11:15 AM 82.4 °F 88.2 °F 73.4 °F 74% 30.20 in 10.0 mi ESE 4.6 mph - N/A   Mostly Cloudy
11:35 AM 80.6 °F 85.4 °F 73.4 °F 79% 30.19 in 10.0 mi Calm Calm - N/A   Mostly Cloudy
11:55 AM 82.4 °F 87.2 °F 71.6 °F 70% 30.19 in 10.0 mi NNE 3.5 mph - N/A   Partly Cloudy
12:15 PM 82.4 °F 88.2 °F 73.4 °F 74% 30.19 in 10.0 mi Calm Calm - N/A   Mostly Cloudy
12:35 PM 82.4 °F 88.2 °F 73.4 °F 74% 30.18 in 10.0 mi NE 3.5 mph - N/A   Scattered Clouds
12:55 PM 82.4 °F 87.2 °F 71.6 °F 70% 30.18 in 9.0 mi Calm Calm - N/A   Scattered Clouds
1:15 PM 82.4 °F 88.2 °F 73.4 °F 74% 30.18 in 10.0 mi NNE 9.2 mph - N/A   Mostly Cloudy
1:35 PM 82.4 °F 89.5 °F 75.2 °F 79% 30.17 in 10.0 mi North 9.2 mph - N/A   Mostly Cloudy
1:55 PM 82.4 °F 88.2 °F 73.4 °F 74% 30.17 in 10.0 mi NNE 9.2 mph - N/A   Mostly Cloudy
2:15 PM 84.2 °F 90.9 °F 73.4 °F 70% 30.16 in 10.0 mi NNE 9.2 mph - N/A   Mostly Cloudy
2:35 PM 82.4 °F 88.2 °F 73.4 °F 74% 30.16 in 10.0 mi NNE 6.9 mph - N/A   Partly Cloudy
2:55 PM 84.2 °F 90.9 °F 73.4 °F 70% 30.15 in 10.0 mi NNE 9.2 mph - N/A   Scattered Clouds
3:15 PM 82.4 °F 88.2 °F 73.4 °F 74% 30.15 in 10.0 mi North 10.4 mph - N/A   Mostly Cloudy
3:35 PM 84.2 °F 90.9 °F 73.4 °F 70% 30.15 in 10.0 mi NE 12.7 mph - N/A   Scattered Clouds
3:55 PM 84.2 °F 89.6 °F 71.6 °F 66% 30.14 in 10.0 mi NE 11.5 mph - N/A   Partly Cloudy
4:15 PM 84.2 °F 89.6 °F 71.6 °F 66% 30.14 in 10.0 mi NE 8.1 mph - N/A   Scattered Clouds
4:35 PM 84.2 °F 89.6 °F 71.6 °F 66% 30.14 in 10.0 mi ENE 10.4 mph - N/A   Mostly Cloudy
4:55 PM 82.4 °F 88.2 °F 73.4 °F 74% 30.14 in 10.0 mi ESE 4.6 mph - N/A   Overcast
5:15 PM 82.4 °F 87.2 °F 71.6 °F 70% 30.14 in 10.0 mi NE 10.4 mph - N/A   Scattered Clouds
5:35 PM 84.2 °F 90.9 °F 73.4 °F 70% 30.14 in 10.0 mi ENE 8.1 mph - N/A   Scattered Clouds
5:55 PM 82.4 °F 88.2 °F 73.4 °F 74% 30.14 in 10.0 mi East 6.9 mph - N/A   Scattered Clouds
6:15 PM 82.4 °F 88.2 °F 73.4 °F 74% 30.14 in 10.0 mi SSE 5.8 mph - N/A   Mostly Cloudy
6:35 PM 80.6 °F 85.4 °F 73.4 °F 79% 30.14 in 10.0 mi SSE 3.5 mph - N/A   Mostly Cloudy
6:55 PM 80.6 °F 85.4 °F 73.4 °F 79% 30.15 in 10.0 mi ESE 5.8 mph - N/A   Scattered Clouds
7:15 PM 80.6 °F 85.4 °F 73.4 °F 79% 30.14 in 10.0 mi ESE 3.5 mph - N/A   Clear
7:35 PM 78.8 °F - 73.4 °F 83% 30.14 in 10.0 mi East 4.6 mph - N/A   Clear
7:55 PM 78.8 °F - 73.4 °F 83% 30.15 in 10.0 mi East 3.5 mph - N/A   Clear
8:15 PM 77.0 °F - 73.4 °F 89% 30.15 in 10.0 mi East 4.6 mph - N/A   Clear
8:35 PM 75.2 °F - 73.4 °F 94% 30.16 in 10.0 mi East 4.6 mph - N/A   Clear
8:55 PM 75.2 °F - 73.4 °F 94% 30.15 in 10.0 mi ESE 3.5 mph - N/A   Clear
9:15 PM 75.2 °F - 71.6 °F 89% 30.15 in 10.0 mi Calm Calm - N/A   Clear
9:35 PM 75.2 °F - 71.6 °F 89% 30.15 in 10.0 mi Calm Calm - N/A   Clear
9:55 PM 73.4 °F - 71.6 °F 94% 30.15 in 10.0 mi Calm Calm - N/A   Clear
10:15 PM 73.4 °F - 71.6 °F 94% 30.15 in 10.0 mi Calm Calm - N/A   Clear
10:35 PM 73.4 °F - 71.6 °F 94% 30.16 in 9.0 mi Calm Calm - N/A   Clear
10:55 PM 73.4 °F - 71.6 °F 94% 30.16 in 10.0 mi Calm Calm - N/A   Clear
11:15 PM 73.4 °F - 71.6 °F 94% 30.16 in 9.0 mi Calm Calm - N/A   Clear
11:35 PM 71.6 °F - 71.6 °F 100% 30.15 in 9.0 mi Calm Calm - N/A   Clear
11:55 PM 71.6 °F - 71.6 °F 100% 30.15 in 8.0 mi Calm Calm - N/A   Clear